Toledo, OH

7:27 AM EST on January 19, 2018 (GMT -0500)
Toledo Express

Weather History for KTOL - November, 2011

Change the Weather History Date:

Tuesday, November 29, 2011

  Actual Average Record
Temperature  
Mean Temperature 37 °F 36 °F  
Max Temperature 40 °F 43 °F 66 °F (2006)
Min Temperature 33 °F 29 °F 3 °F (1958)
Degree Days  
Heating Degree Days 28 29  
Month to date heating degree days 557 678  
Since 1 July heating degree days 1080 1204  
Cooling Degree Days 0 0  
Month to date cooling degree days 0 0  
Year to date cooling degree days 997 793  
Moisture  
Dew Point 36 °F    
Average Humidity 95    
Maximum Humidity 100    
Minimum Humidity 89    
Precipitation  
Precipitation 2.77 in 0.10 in 2.77 in (2011)
Month to date precipitation 7.13 2.76  
Year to date precipitation 45.40 31.46  
Snow  
Snow 1.20 in 0.10 in - ()
Month to date snowfall 1.2 1.8  
Since 1 July snowfall 1.2 2.0  
Since 1 September snowfall 1.2 2.0  
Snow Depth 0.00 in    
Sea Level Pressure  
Sea Level Pressure 29.65 in    
Wind  
Wind Speed 16 mph (North)    
Max Wind Speed 28 mph    
Max Gust Speed 37 mph    
Visibility 2 miles    
Events Fog , Rain , Snow    
T = Trace of Precipitation, MM = Missing Value Source: NWS Daily Summary

Daily Weather History Graph

Daily Weather History Graph

Search for Another Location

Airport or City:

Trip Planner

Search our weather history database for the weather conditions in past years. The results will help you decide how hot, cold, wet, or windy it might be!

Date:

Astronomy

Nov. 29, 2011 Rise Set
Actual Time 7:40 AM EST 5:06 PM EST
Civil Twilight 7:09 AM EST 5:37 PM EST
Nautical Twilight 6:34 AM EST 6:11 PM EST
Astronomical Twilight 6:01 AM EST 6:45 PM EST
Moon 11:24 AM EST (11/29) 10:00 PM EST (11/29)
Length of Visible Light 10h 28m
Length of Day
9h 26m
Waxing Crescent, 24% of the Moon is Illuminated
Nov 29
Waxing Crescent
Dec 2
First Quarter
Dec 10
Full
Dec 17
Last Quarter
Dec 24
New

Hourly Weather History & Observations

Time (EST) Temp. Windchill Dew Point Humidity Pressure Visibility Wind Dir Wind Speed Gust Speed Precip Events Conditions
12:52 AM 39.0 °F 31.8 °F 37.9 °F 96% 29.87 in 3.0 mi NE 11.5 mph - 0.19 in Rain Rain
1:52 AM 39.2 °F 31.6 °F 37.4 °F 93% 29.80 in 5.0 mi NNE 12.7 mph - N/A Rain Rain
2:52 AM 39.9 °F 32.5 °F 37.9 °F 93% 29.80 in 4.0 mi NNE 12.7 mph - 0.20 in Rain Heavy Rain
3:52 AM 39.9 °F 32.1 °F 37.9 °F 93% 29.77 in 7.0 mi NNE 13.8 mph 21.9 mph 0.13 in Rain Rain
4:52 AM 39.9 °F 30.8 °F 37.9 °F 93% 29.76 in 2.0 mi NNE 18.4 mph - 0.26 in Rain Heavy Rain
5:07 AM 39.2 °F 29.8 °F 37.4 °F 93% 29.75 in 3.0 mi NNE 18.4 mph 23.0 mph 0.08 in Rain Heavy Rain
5:14 AM 39.2 °F 28.7 °F 37.4 °F 93% 29.75 in 3.0 mi NNE 23.0 mph 28.8 mph 0.12 in Rain Heavy Rain
5:52 AM 39.9 °F 31.1 °F 37.9 °F 93% 29.75 in 3.0 mi NNE 17.3 mph - 0.26 in Rain Heavy Rain
6:03 AM 39.2 °F 30.8 °F 37.4 °F 93% 29.73 in 2.0 mi NNE 15.0 mph 26.5 mph 0.04 in Rain Heavy Rain
6:52 AM 39.0 °F 29.0 °F 37.0 °F 93% 29.73 in 2.0 mi NNE 20.7 mph 29.9 mph 0.30 in Rain Heavy Rain
7:00 AM 39.2 °F 29.8 °F 37.4 °F 93% 29.71 in 2.0 mi NNE 18.4 mph 29.9 mph 0.05 in Rain Heavy Rain
7:11 AM 39.2 °F 29.8 °F 37.4 °F 93% 29.72 in 3.0 mi NNE 18.4 mph 26.5 mph 0.08 in Rain Rain
7:19 AM 39.2 °F 29.6 °F 37.4 °F 93% 29.73 in 2.0 mi NNE 19.6 mph 24.2 mph 0.10 in Rain Rain
7:52 AM 39.0 °F 29.9 °F 37.0 °F 93% 29.74 in 2.5 mi NNE 17.3 mph 31.1 mph 0.17 in Rain Rain
8:27 AM 39.2 °F 30.2 °F 37.4 °F 93% 29.71 in 1.5 mi NNE 17.3 mph 24.2 mph N/A Rain Light Rain
8:37 AM 39.2 °F 30.2 °F 37.4 °F 93% 29.71 in 1.2 mi NNE 17.3 mph 23.0 mph 0.04 in Rain Rain
8:52 AM 39.0 °F 29.6 °F 37.0 °F 93% 29.73 in 1.5 mi NNE 18.4 mph 24.2 mph 0.06 in Rain Light Rain
9:12 AM 39.2 °F 30.5 °F 37.4 °F 93% 29.70 in 1.0 mi NNE 16.1 mph 26.5 mph N/A Rain Rain
9:32 AM 39.2 °F 29.6 °F 37.4 °F 93% 29.70 in 1.5 mi NNE 19.6 mph 26.5 mph 0.03 in Rain Light Rain
9:52 AM 39.0 °F 29.0 °F 37.0 °F 93% 29.71 in 1.5 mi NNE 20.7 mph 32.2 mph 0.04 in Rain Light Rain
10:11 AM 39.2 °F 30.5 °F 37.4 °F 93% 29.69 in 2.5 mi NNE 16.1 mph 31.1 mph 0.00 in Rain Light Rain
10:35 AM 39.2 °F 29.6 °F 37.4 °F 93% 29.69 in 1.5 mi NNE 19.6 mph 28.8 mph 0.01 in Rain Light Rain
10:45 AM 39.2 °F 30.8 °F 37.4 °F 93% 29.68 in 2.0 mi NNE 15.0 mph 28.8 mph 0.01 in Rain Light Rain
10:52 AM 39.0 °F 29.3 °F 37.0 °F 93% 29.69 in 1.8 mi North 19.6 mph 28.8 mph 0.01 in Rain Light Rain
11:02 AM 39.2 °F 29.6 °F 37.4 °F 93% 29.66 in 1.2 mi NNE 19.6 mph 33.4 mph 0.01 in Rain Light Rain
11:17 AM 39.2 °F 28.5 °F 37.4 °F 93% 29.65 in 1.5 mi NNE 24.2 mph 34.5 mph 0.02 in   Overcast
11:25 AM 39.2 °F 29.0 °F 37.4 °F 93% 29.64 in 1.2 mi NNE 21.9 mph 34.5 mph N/A Rain Rain
11:38 AM 39.2 °F 28.7 °F 37.4 °F 93% 29.63 in 1.5 mi NNE 23.0 mph 34.5 mph 0.03 in Rain Light Rain
11:52 AM 39.0 °F 28.8 °F 37.0 °F 93% 29.63 in 1.5 mi NNE 21.9 mph 29.9 mph 0.04 in Rain Light Rain
11:59 AM 39.2 °F 28.7 °F 37.4 °F 93% 29.61 in 1.0 mi NNE 23.0 mph 31.1 mph 0.00 in Rain Rain
12:52 PM 39.0 °F 28.8 °F 37.0 °F 93% 29.58 in 1.2 mi North 21.9 mph 32.2 mph 0.07 in Rain Rain
1:04 PM 39.2 °F 28.5 °F 37.4 °F 93% 29.55 in 1.5 mi NNE 24.2 mph 35.7 mph 0.04 in Rain Light Rain
1:08 PM 39.2 °F 28.7 °F 37.4 °F 93% 29.55 in 2.0 mi NNE 23.0 mph 32.2 mph 0.04 in Rain Light Rain
1:19 PM 39.2 °F 29.0 °F 37.4 °F 93% 29.55 in 2.0 mi NNE 21.9 mph 28.8 mph 0.04 in Rain Light Rain
1:25 PM 39.2 °F 29.0 °F 37.4 °F 93% 29.54 in 1.2 mi NNE 21.9 mph 28.8 mph 0.05 in Rain Light Rain
1:52 PM 39.0 °F 29.6 °F 37.0 °F 93% 29.55 in 1.2 mi NNE 18.4 mph 28.8 mph 0.08 in Rain Light Rain
2:26 PM 37.4 °F 32.8 °F 37.4 °F 100% 29.61 in 0.5 mi SW 5.8 mph - 0.21 in Fog , Rain Heavy Rain
2:45 PM 35.6 °F 29.2 °F 35.6 °F 100% 29.62 in 1.0 mi SW 8.1 mph - 0.37 in Rain Heavy Rain
2:52 PM 35.1 °F 29.3 °F 34.0 °F 96% 29.64 in 1.8 mi WSW 6.9 mph - 0.40 in Rain Heavy Rain
3:11 PM 35.6 °F 30.7 °F 33.8 °F 93% 29.62 in 2.0 mi West 5.8 mph - 0.06 in Rain Rain
3:37 PM 35.6 °F 29.2 °F 35.6 °F 100% 29.60 in 4.0 mi WNW 8.1 mph - 0.09 in Rain Light Rain
3:44 PM 35.6 °F 29.2 °F 35.6 °F 100% 29.60 in 2.5 mi NW 8.1 mph - 0.10 in Rain Light Rain
3:52 PM 37.0 °F 31.6 °F 36.0 °F 96% 29.61 in 1.5 mi NNW 6.9 mph - 0.11 in Rain Light Rain
4:07 PM 37.4 °F 32.1 °F 35.6 °F 93% 29.59 in 2.0 mi NW 6.9 mph - 0.01 in Rain Light Rain
4:10 PM 37.4 °F 32.1 °F 35.6 °F 93% 29.59 in 2.5 mi NW 6.9 mph - 0.02 in Rain Light Rain
4:18 PM 37.4 °F 31.4 °F 37.4 °F 100% 29.59 in 3.0 mi NW 8.1 mph - 0.02 in Rain Light Rain
4:26 PM 37.4 °F 31.4 °F 37.4 °F 100% 29.59 in 1.8 mi NW 8.1 mph - 0.03 in Rain Light Rain
4:47 PM 37.4 °F 29.8 °F 37.4 °F 100% 29.58 in 1.0 mi NNW 11.5 mph - 0.06 in Rain Rain
4:52 PM 37.9 °F 30.5 °F 37.0 °F 97% 29.60 in 1.2 mi NNW 11.5 mph - 0.07 in Rain Rain
5:04 PM 37.4 °F 29.8 °F 37.4 °F 100% 29.58 in 1.8 mi NNW 11.5 mph - 0.01 in Rain Rain
5:11 PM 35.6 °F 27.1 °F 35.6 °F 100% 29.58 in 2.0 mi NW 12.7 mph - 0.03 in Rain Rain
5:20 PM 35.6 °F 27.5 °F 35.6 °F 100% 29.58 in 2.5 mi NW 11.5 mph - 0.04 in Rain Rain
5:32 PM 37.4 °F 30.3 °F 35.6 °F 93% 29.58 in 1.8 mi NNW 10.4 mph - 0.06 in Rain Light Rain
5:52 PM 37.9 °F 30.5 °F 37.0 °F 97% 29.60 in 1.8 mi North 11.5 mph - 0.09 in Rain Rain
6:13 PM 37.4 °F 27.2 °F 35.6 °F 93% 29.58 in 1.2 mi North 19.6 mph 31.1 mph 0.05 in Snow Light Snow
6:28 PM 37.4 °F 27.8 °F 35.6 °F 93% 29.59 in 1.5 mi North 17.3 mph 24.2 mph 0.07 in Snow Light Snow
6:52 PM 36.0 °F 26.0 °F 35.1 °F 97% 29.61 in 1.8 mi NNW 17.3 mph 25.3 mph 0.09 in Snow Light Snow
7:05 PM 35.6 °F 25.2 °F 33.8 °F 93% 29.59 in 2.5 mi NNW 18.4 mph 26.5 mph 0.01 in Rain Rain
7:15 PM 35.6 °F 24.8 °F 33.8 °F 93% 29.60 in 3.0 mi NNW 19.6 mph 28.8 mph 0.03 in Rain Rain
7:52 PM 34.0 °F 23.4 °F 32.0 °F 92% 29.62 in 5.0 mi North 17.3 mph 25.3 mph 0.04 in Snow Light Snow
8:52 PM 33.8 °F 22.2 °F 32.0 °F 93% 29.62 in 7.0 mi North 20.7 mph 31.1 mph N/A   Overcast
9:13 PM 35.6 °F 24.5 °F 32.0 °F 87% 29.62 in 9.0 mi North 20.7 mph 29.9 mph 0.00 in Rain Light Rain
9:52 PM 35.1 °F 24.1 °F 32.0 °F 89% 29.65 in 6.0 mi North 19.6 mph 27.6 mph 0.00 in   Overcast
10:52 PM 34.0 °F 23.8 °F 32.0 °F 92% 29.66 in 9.0 mi North 16.1 mph 24.2 mph 0.00 in Snow Light Snow
11:52 PM 33.1 °F 22.6 °F 30.9 °F 92% 29.67 in 5.0 mi NNW 16.1 mph 26.5 mph 0.00 in Snow Light Snow
11:59 PM 33.8 °F 22.8 °F 30.2 °F 87% 29.65 in 5.0 mi NNW 18.4 mph 31.1 mph 0.00 in Snow Light Snow